STARLINK-32867, 62855

Orbit data source: Space-Track

STARLINK-32867, 62855 is a payload satellite owned by SpaceX/Seattle (US) in LEO that was launched on Sat, 01 Feb 2025 UTC via an FALCON 9 launch vehicle from the Air Force Western Test Range (AFWTR). Payload-class satellites include a variety of spacecraft equipped with specific instruments for various scientific and technological missions. These include communications satellites like Starlink; space stations such as the ISS; scientific satellites like the Hubble; Earth observation satellites from companies like Planet Labs, Umbra, and HawkEye 360; GPS; miniature CubeSats for education and research; and military/defense satellites.

Loading next visibility...
Identifier
62855, 2025-022B
Orbit
LEO
Country
Flag of USUS
Related business
Manufacturer
SpaceX/Seattle
Mission
Operational Commercial Communications
Bus & Motor
STARLINK V2M, Unknown motor
Mass
730 kg wet, ~700 kg dry
Launch date (UTC)
2025-02-01 (10 months ago)
Launch vehicle
FALCON 9
Launch site
Air Force Western Test Range (AFWTR)
Object type
Payload
Rocket body
Debris
Shape & HBR
Box + 2 Pan, 17.7 m
Radar Cross Section
33.884 m², Large (>1 m²)

Expand to show TLE details & history
Last TLE update: 11 hours ago

TLE from 11 hours ago
0 STARLINK-32867
1 62855U 25022B   25346.81538913  .00026921  00000-0  91795-3 0  9999
2 62855  53.1571 172.8154 0000974  89.6637 270.4475 15.30193358 48602
Epoch: 2025-12-12T19:34Z
TLE epoch observation values (Epoch: 2025-12-12T19:34:09.620Z)
Latitude
-0.00006°
Longitude
157.52367°
Altitude
476.129 km
Speed
7.629 km/s
True Right ascension
11h 31m 15s
True Declination
0° 00' 00"
Sunlit
Object was in daylight at epoch
Visualization orbit readout
Latitude
Unknown
Longitude
Unknown
Altitude
Unknown
Speed
Unknown
Apparent Right ascension
Unknown
Apparent Declination
Unknown
Sunlit
N/A
Visualization observer readout
Local Sidereal Time
05:21:56
Azimuth
Unknown
Elevation
Unknown
Doppler factor
Unknown
Orbital elements
Apogee altitude
476.159 km
Perigee altitude
474.824 km
Semi-major axis
6,853.629 km
Eccentricity
0.0001
Inclination
53.1571°
RAAN
172.8154°
Arg. of periapsis
89.6637°
True anomaly
270.43634°
Mean anomaly
270.4475°
Eccentric anomaly
270.44192°
Mean motion
3.82527 °/min
Orbital period
94.11 mins
BSTAR
0.00091795
Loading maneuver chart data...
Computing Atmospheric mass density...
Loading historical data...
Loading historical data...
Loading historical data...
Loading historical data...
Loading historical data...
Loading historical data...
Loading historical data...

Documentation

Showing up to 5 results
|